Weather History for KMLU - April, 2014

Change the Weather History Date:

Monday, April 14, 2014

  Actual Average Record
Temperature  
Mean Temperature 59 °F 65 °F  
Max Temperature 73 °F 78 °F 91 °F (1936)
Min Temperature 45 °F 53 °F 34 °F (1959)
Degree Days  
Heating Degree Days 6 3  
Month to date heating degree days 60 56  
Since 1 July heating degree days 2760 2200  
Cooling Degree Days 0 3  
Month to date cooling degree days 35 35  
Year to date cooling degree days 44 78  
Growing Degree Days 10 (Base 50)    
Moisture  
Dew Point 58 °F    
Average Humidity 84    
Maximum Humidity 97    
Minimum Humidity 71    
Precipitation  
Precipitation 1.46 in 0.15 in 2.03 in (1993)
Month to date precipitation 7.86 2.05  
Year to date precipitation 16.63 16.41  
Snow  
Snow 0.00 in - - ()
Month to date snowfall 0.0  
Since 1 July snowfall 0.5  
Snow Depth 0.00 in    
Sea Level Pressure  
Sea Level Pressure 29.84 in    
Wind  
Wind Speed 11 mph (NNW)    
Max Wind Speed 36 mph    
Max Gust Speed 44 mph    
Visibility 7 miles    
Events Fog , Rain , Thunderstorm    
T = Trace of Precipitation, MM = Missing Value Source: NWS Daily Summary

Daily Weather History Graph

Daily Weather History Graph

Search for Another Location

Airport or City:

Trip Planner

Search our weather history database for the weather conditions in past years. The results will help you decide how hot, cold, wet, or windy it might be!

Date:

Astronomy

Apr. 14, 2014 Rise Set
Actual Time 6:39 AM CDT 7:37 PM CDT
Civil Twilight 6:14 AM CDT 8:02 PM CDT
Nautical Twilight 5:44 AM CDT 8:32 PM CDT
Astronomical Twilight 5:14 AM CDT 9:03 PM CDT
Moon 7:17 PM CDT (4/14) 6:09 AM CDT (4/14)
Length of Visible Light 13h 47m
Length of Day
12h 57m
Full, 100% of the Moon is Illuminated
Apr 14
Full
Apr 15
Full
Apr 22
Last Quarter
Apr 29
New
May 6
First Quarter

Hourly Weather History & Observations

Time (CDT) Temp. Windchill Dew Point Humidity Pressure Visibility Wind Dir Wind Speed Gust Speed Precip Events Conditions
12:03 AM 66.2 °F - 64.4 °F 94% 29.77 in 8.0 mi South 5.8 mph - 0.01 in Rain , Thunderstorm Light Rain
12:13 AM 66.2 °F - 64.4 °F 94% 29.78 in 10.0 mi SSW 6.9 mph - 0.01 in Rain Light Rain
12:21 AM 66.2 °F - 64.4 °F 94% 29.78 in 10.0 mi South 6.9 mph - 0.01 in Rain Light Rain
12:32 AM 66.2 °F - 64.4 °F 94% 29.78 in 7.0 mi SSW 5.8 mph - 0.02 in Rain , Thunderstorm Light Rain
12:50 AM 68.0 °F - 64.4 °F 88% 29.78 in 10.0 mi South 5.8 mph - N/A Rain Light Rain
12:53 AM 68.0 °F - 64.9 °F 90% 29.77 in 10.0 mi South 6.9 mph - 0.02 in Rain Light Rain
1:53 AM 66.9 °F - 64.9 °F 93% 29.77 in 10.0 mi South 4.6 mph - 0.05 in Rain Light Rain
2:06 AM 66.2 °F - 64.4 °F 94% 29.77 in 10.0 mi South 4.6 mph - 0.00 in Rain Light Rain
2:45 AM 68.0 °F - 66.2 °F 94% 29.76 in 7.0 mi SSW 5.8 mph - 0.00 in   Overcast
2:53 AM 68.0 °F - 66.9 °F 96% 29.75 in 5.0 mi South 4.6 mph - 0.01 in Rain Light Rain
3:53 AM 69.8 °F - 66.2 °F 88% 29.73 in 7.0 mi South 9.2 mph - N/A   Overcast
4:53 AM 70.0 °F - 68.0 °F 93% 29.74 in 8.0 mi East 5.8 mph - N/A   Overcast
5:53 AM 61.0 °F - 60.1 °F 97% 29.75 in 10.0 mi Variable 3.5 mph - 0.00 in Rain Light Rain
6:29 AM 60.8 °F - 60.8 °F 100% 29.78 in 8.0 mi SSW 4.6 mph - 0.02 in Rain Light Rain
6:42 AM 60.8 °F - 59.0 °F 94% 29.78 in 3.0 mi Variable 3.5 mph - 0.08 in Rain , Thunderstorm Heavy Rain
6:53 AM 61.0 °F - 59.0 °F 93% 29.80 in 4.0 mi ENE 6.9 mph - 0.13 in Rain , Thunderstorm Rain
7:06 AM 60.8 °F - 59.0 °F 94% 29.79 in 5.0 mi ESE 6.9 mph - 0.05 in Rain Light Rain
7:13 AM 60.8 °F - 59.0 °F 94% 29.79 in 1.8 mi ESE 6.9 mph - N/A Rain Heavy Rain
7:21 AM 60.8 °F - 59.0 °F 94% 29.80 in 2.5 mi East 8.1 mph - 0.30 in Rain , Thunderstorm Heavy Rain
7:28 AM 60.8 °F - 59.0 °F 94% 29.80 in 2.5 mi ENE 5.8 mph - 0.35 in Rain , Thunderstorm Heavy Rain
7:36 AM 60.8 °F - 59.0 °F 94% 29.81 in 6.0 mi ENE 5.8 mph - 0.36 in Rain Rain
7:53 AM 61.0 °F - 60.1 °F 97% 29.81 in 10.0 mi East 6.9 mph - 0.37 in Rain Light Rain
8:53 AM 63.0 °F - 61.0 °F 93% 29.82 in 10.0 mi ESE 4.6 mph - 0.00 in   Overcast
9:03 AM 62.6 °F - 60.8 °F 94% 29.82 in 10.0 mi East 6.9 mph - N/A   Overcast
9:53 AM 64.0 °F - 62.1 °F 93% 29.82 in 10.0 mi East 3.5 mph - N/A   Overcast
10:53 AM 66.9 °F - 64.9 °F 93% 29.82 in 9.0 mi Calm Calm - N/A   Overcast
11:04 AM 68.0 °F - 66.2 °F 94% 29.81 in 8.0 mi East 4.6 mph - N/A   Overcast
11:23 AM 68.0 °F - 66.2 °F 94% 29.80 in 8.0 mi SSE 3.5 mph - N/A Thunderstorm Thunderstorm
11:28 AM 68.0 °F - 66.2 °F 94% 29.81 in 1.8 mi Calm Calm - 0.07 in Rain , Thunderstorm Light Thunderstorms and Rain
11:40 AM 68.0 °F - 66.2 °F 94% 29.81 in 3.0 mi NE 3.5 mph - 0.10 in Rain , Thunderstorm Light Thunderstorms and Rain
11:53 AM 68.0 °F - 66.0 °F 93% 29.79 in 5.0 mi ENE 5.8 mph - 0.11 in Rain , Thunderstorm Light Thunderstorms and Rain
12:02 PM 68.0 °F - 66.2 °F 94% 29.80 in 2.5 mi NE 8.1 mph - 0.05 in Rain , Thunderstorm Thunderstorms and Rain
12:11 PM 68.0 °F - 66.2 °F 94% 29.80 in 1.5 mi ESE 5.8 mph - 0.07 in Rain , Thunderstorm Light Thunderstorms and Rain
12:15 PM 69.8 °F - 66.2 °F 88% 29.80 in 3.0 mi East 3.5 mph - 0.07 in Rain , Thunderstorm Light Thunderstorms and Rain
12:28 PM 69.8 °F - 66.2 °F 88% 29.79 in 10.0 mi Calm Calm - 0.07 in Rain , Thunderstorm Light Rain
12:45 PM 73.4 °F - 64.4 °F 73% 29.78 in 10.0 mi Variable 3.5 mph - 0.07 in   Mostly Cloudy
12:53 PM 73.4 °F - 64.4 °F 73% 29.78 in 10.0 mi WSW 5.8 mph - N/A   Mostly Cloudy
1:03 PM 71.6 °F - 64.4 °F 78% 29.77 in 10.0 mi Variable 3.5 mph - 0.00 in Rain , Thunderstorm Light Thunderstorms and Rain
1:13 PM 71.6 °F - 64.4 °F 78% 29.78 in 1.5 mi SSW 6.9 mph - 0.11 in Rain , Thunderstorm Thunderstorms and Rain
1:21 PM 68.0 °F - 64.4 °F 88% 29.78 in 0.5 mi SSW 4.6 mph - 0.25 in Fog , Rain , Thunderstorm Heavy Thunderstorms and Rain
1:36 PM 68.0 °F - 66.2 °F 94% 29.77 in 0.8 mi Calm Calm - 0.42 in Rain , Thunderstorm Light Thunderstorms and Rain
1:40 PM 69.8 °F - 66.2 °F 88% 29.77 in 2.5 mi NW 3.5 mph - 0.42 in Rain , Thunderstorm Light Thunderstorms and Rain
1:43 PM 71.6 °F - 66.2 °F 83% 29.76 in 8.0 mi NW 6.9 mph - 0.42 in Rain , Thunderstorm Light Thunderstorms and Rain
1:53 PM 72.0 °F - 66.9 °F 84% 29.76 in 10.0 mi NW 6.9 mph - 0.42 in Thunderstorm Mostly Cloudy
1:58 PM 71.6 °F - 66.2 °F 83% 29.76 in 10.0 mi NW 11.5 mph - N/A   Mostly Cloudy
2:09 PM 71.6 °F - 66.2 °F 83% 29.77 in 10.0 mi NW 12.7 mph - N/A   Mostly Cloudy
2:24 PM 69.8 °F - 64.4 °F 83% 29.77 in 10.0 mi NNW 18.4 mph 24.2 mph N/A   Overcast
2:28 PM 68.0 °F - 64.4 °F 88% 29.77 in 10.0 mi NNW 19.6 mph 27.6 mph N/A   Overcast
2:53 PM 63.0 °F - 61.0 °F 93% 29.80 in 2.0 mi NNW 18.4 mph 28.8 mph 0.00 in Rain , Thunderstorm Light Rain
3:04 PM 62.6 °F - 60.8 °F 94% 29.85 in 3.0 mi WNW 32.2 mph 42.6 mph 0.03 in Rain Heavy Rain
3:07 PM 60.8 °F - 57.2 °F 88% 29.85 in 1.8 mi NW 29.9 mph 43.7 mph 0.08 in Rain Heavy Rain
3:18 PM 55.4 °F - 53.6 °F 94% 29.85 in 2.0 mi NW 28.8 mph 42.6 mph 0.12 in Rain Light Rain
3:28 PM 55.4 °F - 51.8 °F 88% 29.84 in 2.0 mi North 17.3 mph 33.4 mph 0.18 in Rain Light Rain
3:31 PM 55.4 °F - 51.8 °F 88% 29.83 in 4.0 mi North 15.0 mph 28.8 mph 0.18 in Rain Light Rain
3:53 PM 53.6 °F - 51.8 °F 94% 29.83 in 5.0 mi North 16.1 mph 26.5 mph N/A Rain Rain
4:19 PM 53.6 °F - 51.8 °F 94% 29.87 in 10.0 mi NNW 13.8 mph 21.9 mph 0.01 in   Overcast
4:46 PM 51.8 °F - 50.0 °F 94% 29.92 in 3.0 mi NNW 21.9 mph 27.6 mph 0.07 in Rain , Thunderstorm Thunderstorms and Rain
4:53 PM 52.0 °F - 48.9 °F 89% 29.92 in 10.0 mi NW 12.7 mph 27.6 mph 0.07 in Rain , Thunderstorm Light Thunderstorms and Rain
5:16 PM 51.8 °F - 48.2 °F 88% 29.93 in 9.0 mi NNW 13.8 mph 25.3 mph 0.01 in Rain Light Rain
5:46 PM 50.0 °F - 46.4 °F 87% 29.92 in 10.0 mi NW 18.4 mph 25.3 mph 0.01 in   Overcast
5:53 PM 50.0 °F - 46.9 °F 89% 29.93 in 10.0 mi NW 16.1 mph 25.3 mph 0.01 in   Overcast
6:28 PM 48.2 °F - 44.6 °F 87% 29.94 in 10.0 mi NNW 16.1 mph 29.9 mph N/A   Overcast
6:53 PM 48.9 °F - 45.0 °F 86% 29.96 in 10.0 mi NW 16.1 mph 21.9 mph N/A   Overcast
7:48 PM 48.2 °F - 44.6 °F 87% 29.97 in 10.0 mi North 15.0 mph 26.5 mph N/A   Overcast
7:53 PM 48.0 °F - 43.0 °F 83% 29.97 in 10.0 mi NNW 16.1 mph 24.2 mph N/A   Overcast
8:53 PM 48.9 °F - 43.0 °F 80% 30.00 in 10.0 mi North 17.3 mph 25.3 mph N/A   Overcast
9:41 PM 46.4 °F 40.4 °F 44.6 °F 93% 30.04 in 9.0 mi NNW 13.8 mph 20.7 mph 0.00 in Rain Light Rain
9:53 PM 46.9 °F - 43.0 °F 86% 30.05 in 9.0 mi NNW 17.3 mph 25.3 mph 0.00 in Rain Light Rain
10:07 PM 46.4 °F 39.5 °F 42.8 °F 87% 30.05 in 10.0 mi NNW 17.3 mph 27.6 mph 0.00 in   Overcast
10:35 PM 46.4 °F 39.0 °F 39.2 °F 76% 30.06 in 10.0 mi NNW 19.6 mph 27.6 mph 0.00 in   Overcast
10:43 PM 46.4 °F 39.5 °F 39.2 °F 76% 30.06 in 10.0 mi NNW 17.3 mph 27.6 mph 0.00 in   Overcast
10:53 PM 46.9 °F - 39.0 °F 74% 30.06 in 10.0 mi NNW 18.4 mph 25.3 mph 0.00 in   Overcast
11:53 PM 46.0 °F 38.5 °F 37.9 °F 73% 30.08 in 10.0 mi NNW 19.6 mph 25.3 mph N/A   Overcast